Wind_Speed
16 16 16 16 15 15 15 15 16 17 18 19 21 23 25 26 26 27 27 27 27 27 26 24 23 22 22 22 23 24 22 24 25 19 19 19 13 11 9 8 6 4 6
17 16 16 15 15 15 15 15 16 17 18 19 21 22 25 26 27 27 28 28 28 27 26 23 21 20 21 21 20 21 22 22 24 22 19 18 13 10 9 7 5 6 3
18 16 16 16 15 15 15 15 16 16 18 19 21 23 24 26 27 28 28 29 28 27 26 23 20 19 18 19 19 19 21 20 21 22 21 19 15 11 11 8 5 5 6
19 17 16 17 16 16 15 16 16 17 17 19 21 23 24 26 27 28 28 29 29 27 26 24 20 18 18 17 17 17 19 19 19 19 19 18 16 13 10 8 6 5 8
20 19 17 18 17 16 16 17 17 17 18 19 20 22 24 26 28 28 28 28 28 27 26 24 20 18 17 16 16 16 16 17 18 19 17 18 17 13 10 8 6 5 4
21 18 19 19 17 17 17 17 16 17 18 19 20 21 23 25 27 29 29 28 28 26 25 24 21 18 16 13 14 14 14 14 16 17 19 18 18 16 13 12 8 3 2
19 19 19 20 18 17 18 18 17 17 18 20 21 22 23 25 27 29 29 29 28 27 25 23 21 18 15 12 11 10 11 11 12 13 15 17 17 17 16 15 13 11 6
19 19 20 20 19 19 19 18 18 18 18 19 21 22 23 25 27 28 29 28 28 27 26 23 20 18 15 12 10 9 9 9 10 12 12 12 14 14 15 15 14 14 12
17 17 19 21 21 21 19 19 20 19 19 20 20 23 23 25 26 28 29 28 28 28 27 24 20 18 14 12 10 9 7 8 8 8 9 11 11 12 12 13 14 13 13
16 18 22 23 22 20 20 21 21 20 20 21 21 22 24 24 26 26 29 28 28 27 28 24 20 16 14 13 12 9 8 7 7 7 7 8 9 10 10 10 10 10 10
19 19 21 23 22 21 21 22 22 22 21 21 21 23 24 25 25 26 27 27 27 27 27 24 21 17 12 13 13 11 8 7 6 6 6 7 8 8 9 10 10 10 9
20 21 20 20 22 22 22 22 22 23 22 21 22 22 24 25 24 25 25 26 27 26 26 24 20 17 12 12 13 12 8 7 6 6 5 6 6 7 8 8 9 9 8
19 20 21 22 22 22 23 22 23 23 23 22 23 21 23 24 23 24 24 24 25 25 24 24 21 18 13 11 13 13 10 6 6 5 5 5 5 6 7 8 9 9 9
21 20 21 22 23 23 23 23 23 23 23 23 22 21 22 22 22 22 23 22 24 24 24 22 21 19 15 10 11 13 12 8 5 5 5 5 6 6 6 7 7 8 9
26 24 23 22 23 24 25 24 24 23 23 24 21 22 22 21 22 20 21 21 22 23 23 21 20 18 15 11 9 11 12 9 5 4 5 5 5 6 6 6 6 7 8
32 29 27 25 25 25 25 24 24 23 24 24 23 22 22 21 22 19 19 19 20 22 22 21 20 18 15 11 8 9 10 10 7 4 3 5 4 6 6 6 6 7 7
38 37 34 32 30 27 25 25 25 25 25 24 22 22 23 21 21 20 18 19 18 19 20 20 19 18 15 11 7 6 8 9 8 6 2 2 6 8 7 6 6 6 6
42 40 39 37 33 34 30 26 25 25 26 23 23 23 23 22 22 20 19 18 18 17 18 19 18 17 14 10 7 5 5 8 10 10 6 3 6 9 8 7 6 7 8
40 40 40 38 34 33 33 31 26 24 24 24 24 23 22 24 22 20 19 18 18 17 17 17 16 15 13 9 5 4 4 7 10 12 12 10 9 8 8 7 6 6 7
38 38 38 39 36 32 30 30 30 26 24 23 24 23 24 24 21 21 20 18 18 17 16 16 16 14 13 10 6 3 4 6 9 11 13 14 13 10 8 7 7 6 6
35 34 35 36 35 34 31 29 28 27 26 24 23 25 26 24 22 22 20 20 18 18 16 16 15 14 12 11 8 5 5 6 8 11 13 15 15 12 11 11 10 9 8
34 34 34 33 33 35 34 32 29 27 27 26 23 25 26 24 23 22 21 21 19 18 17 15 15 14 12 11 10 8 6 7 8 10 13 15 15 14 13 12 12 12 10
33 35 36 37 33 34 37 36 37 35 32 28 27 26 27 24 24 24 22 22 20 19 18 16 15 15 14 12 11 10 9 8 9 10 12 14 15 15 15 14 13 12 12
34 34 35 35 37 36 36 38 37 36 37 33 30 28 26 25 25 25 24 23 21 20 19 17 15 16 14 13 12 12 11 10 10 11 12 13 14 15 16 15 15 14 13
34 35 34 35 36 37 39 38 38 35 35 36 32 31 27 26 26 25 25 24 23 21 20 19 17 16 16 14 13 13 13 13 12 12 12 12 13 14 15 15 15 15 14
36 36 35 34 35 37 38 39 38 37 34 38 34 32 30 27 27 26 26 25 24 23 21 20 18 16 16 15 14 14 14 15 13 13 13 13 13 13 14 14 13 13 13
Wind_Direction
293 297 302 304 307 310 312 316 319 320 326 328 331 334 333 334 337 339 339 337 337 335 335 337 338 338 340 340 343 346 344 345 351 343 322 320 342 333 333 340 359 319 297
285 290 294 299 303 307 310 311 314 318 323 327 328 332 333 333 335 338 338 337 337 335 334 334 334 332 334 337 344 346 349 350 350 352 339 329 335 330 346 351 327 348 289
281 283 288 295 299 302 305 307 312 315 320 324 326 330 332 331 333 336 338 337 337 335 336 332 329 327 326 334 340 345 354 356 354 354 349 341 338 337 337 358 348 296 289
277 279 283 288 296 300 302 304 308 311 316 320 324 327 330 329 331 335 337 337 339 336 335 330 326 321 318 329 336 349 358 0 2 359 355 350 345 340 332 336 348 320 289
273 275 277 279 288 294 299 302 305 308 312 316 320 324 326 327 330 333 336 337 339 337 333 329 323 316 312 324 335 345 357 4 8 10 5 4 359 354 350 337 329 319 329
275 276 272 278 282 287 292 295 301 304 308 312 316 320 323 325 328 330 335 337 339 337 332 328 321 312 305 313 330 336 345 1 11 15 19 16 15 15 6 4 5 342 291
280 276 274 274 278 280 285 293 296 300 305 308 312 317 320 323 326 328 332 336 337 337 333 329 321 311 300 300 316 325 331 339 353 5 16 18 21 22 24 24 18 14 2
282 277 275 274 273 275 281 287 291 296 301 304 308 313 317 320 325 326 330 334 335 335 334 330 323 311 296 288 295 313 320 329 338 346 358 10 13 19 26 29 35 35 29
286 276 270 270 270 272 279 280 285 293 296 299 305 308 314 316 322 325 328 332 333 333 334 332 326 312 297 281 280 303 306 315 329 340 351 6 15 14 17 25 29 32 36
274 266 264 268 272 273 272 276 281 288 290 295 300 304 310 313 317 323 325 329 330 331 334 335 331 319 298 277 270 278 293 306 319 331 350 5 11 12 17 18 23 26 32
283 279 276 274 275 273 272 275 278 282 286 291 295 299 305 309 313 319 323 326 328 329 331 335 332 326 300 274 262 262 285 289 307 319 338 1 11 12 15 17 17 17 15
295 292 288 283 278 277 276 274 276 279 283 286 291 296 300 304 310 314 319 322 324 328 330 332 333 328 309 277 260 255 262 279 288 307 331 350 2 9 15 19 19 14 12
299 298 291 286 282 280 277 277 276 277 281 283 286 291 294 299 305 309 314 317 319 325 331 332 333 332 317 283 261 254 252 274 277 297 314 337 352 4 9 9 11 11 10
296 297 291 289 287 284 281 279 278 279 279 279 283 286 287 294 299 303 308 313 316 323 328 331 331 333 324 297 265 250 248 251 286 278 299 323 339 351 359 3 4 5 7
289 293 295 289 285 283 282 279 278 278 278 278 281 282 287 289 291 297 300 308 312 318 325 330 330 331 328 313 278 252 245 241 255 291 276 300 320 329 337 341 347 358 0
280 281 285 287 283 282 281 280 278 276 277 279 279 282 282 285 287 291 293 299 307 314 322 326 328 329 329 322 296 258 241 235 230 262 295 268 285 294 303 313 325 337 352
271 277 280 283 285 278 276 277 277 275 275 278 279 278 280 282 284 286 287 293 300 308 316 322 325 325 326 325 310 273 242 230 219 219 253 248 247 264 278 299 314 324 337
265 266 271 276 280 282 275 269 271 274 277 278 277 276 277 280 281 283 284 287 294 303 311 316 320 320 322 322 315 285 245 223 212 204 206 230 248 253 273 284 300 323 337
266 265 265 265 265 271 275 272 269 271 275 277 275 277 275 274 278 280 280 283 289 297 303 309 315 315 316 314 308 283 236 221 210 202 208 226 249 256 265 292 316 321 331
262 262 264 265 260 260 263 263 267 268 269 273 275 276 272 272 275 274 277 278 282 288 295 302 307 307 308 304 293 261 231 215 210 203 202 217 236 250 252 261 277 292 305
265 261 264 266 261 260 259 257 257 261 266 268 271 271 272 272 271 271 272 272 276 281 286 293 298 298 296 292 282 253 226 219 209 208 206 211 225 241 253 255 252 260 274
266 264 262 267 265 257 258 256 255 258 261 264 265 267 269 270 268 266 265 266 269 273 278 283 288 289 285 281 273 258 231 225 216 216 218 217 222 235 244 254 262 263 263
271 266 265 265 267 257 254 256 259 261 261 260 258 260 266 267 263 262 259 259 263 267 271 275 280 281 280 274 268 260 244 232 228 223 226 227 227 234 245 249 253 259 265
272 271 270 268 266 264 257 254 256 258 259 255 254 255 259 262 259 259 256 255 257 260 265 269 271 273 273 272 265 260 252 240 234 232 232 234 237 238 243 251 254 254 257
274 269 268 268 265 262 259 255 252 254 256 255 251 251 251 255 258 256 254 252 251 254 257 261 263 267 266 266 264 260 258 250 239 238 236 238 240 244 248 249 255 259 259
268 267 265 268 270 265 258 252 249 249 250 256 250 246 247 246 251 253 251 250 248 249 251 254 257 260 263 260 261 260 259 257 244 239 241 239 241 244 248 252 254 258 263
Height
3126 3125 3124 3123 3121 3119 3117 3115 3112 3110 3106 3102 3099 3095 3090 3085 3081 3076 3071 3064 3059 3053 3047 3043 3038 3034 3028 3024 3020 3014 3008 3002 2996 2990 2984 2982 2982 2979 2978 2978 2976 2975 2973
3121 3121 3120 3118 3117 3115 3113 3111 3108 3106 3103 3099 3095 3092 3087 3082 3077 3073 3067 3061 3055 3050 3045 3040 3036 3031 3026 3022 3018 3013 3007 3001 2995 2989 2983 2980 2979 2977 2976 2975 2974 2973 2973
3116 3116 3115 3113 3112 3110 3108 3106 3104 3102 3099 3095 3092 3088 3083 3079 3074 3069 3064 3058 3052 3046 3041 3036 3032 3029 3024 3021 3017 3012 3007 3001 2996 2989 2984 2979 2977 2974 2973 2973 2972 2971 2971
3111 3110 3109 3108 3107 3106 3104 3102 3100 3097 3095 3091 3088 3084 3080 3075 3070 3065 3060 3054 3048 3042 3037 3032 3029 3025 3021 3019 3015 3011 3007 3001 2997 2991 2986 2981 2977 2974 2972 2971 2971 2969 2968
3105 3105 3104 3102 3101 3100 3099 3097 3095 3093 3090 3087 3084 3080 3076 3071 3066 3062 3057 3051 3045 3039 3033 3029 3025 3022 3019 3016 3013 3010 3007 3002 2997 2993 2988 2983 2979 2976 2973 2971 2969 2969 2967
3099 3099 3098 3097 3096 3095 3094 3092 3090 3088 3085 3083 3080 3076 3072 3067 3062 3057 3053 3048 3042 3036 3031 3025 3022 3018 3016 3014 3011 3009 3005 3002 2998 2994 2990 2985 2981 2977 2974 2971 2969 2968 2968
3094 3093 3092 3091 3090 3089 3088 3087 3085 3083 3081 3078 3075 3072 3068 3064 3059 3054 3049 3044 3038 3033 3027 3022 3018 3015 3013 3011 3009 3007 3004 3002 2999 2995 2992 2988 2984 2980 2977 2974 2971 2968 2967
3088 3088 3087 3085 3084 3084 3082 3081 3080 3078 3076 3073 3070 3067 3064 3059 3055 3050 3046 3041 3035 3029 3024 3018 3014 3011 3009 3008 3006 3005 3003 3000 2997 2995 2992 2990 2986 2983 2980 2977 2974 2971 2969
3082 3082 3080 3079 3078 3077 3076 3075 3073 3072 3070 3068 3065 3062 3059 3055 3051 3046 3042 3037 3031 3025 3020 3015 3010 3007 3006 3005 3003 3002 3001 2999 2997 2995 2992 2990 2987 2985 2982 2980 2977 2974 2972
3075 3074 3073 3072 3071 3070 3070 3068 3067 3066 3064 3062 3060 3057 3054 3051 3046 3042 3038 3034 3029 3022 3017 3012 3007 3004 3002 3001 3000 2999 2998 2998 2996 2994 2992 2990 2988 2986 2984 2982 2980 2978 2975
3069 3067 3066 3065 3065 3064 3063 3062 3061 3059 3058 3056 3054 3051 3049 3046 3042 3038 3034 3030 3026 3020 3014 3009 3004 3001 2999 2998 2997 2996 2996 2996 2995 2993 2992 2990 2989 2987 2985 2983 2981 2980 2978
3065 3063 3061 3059 3058 3057 3056 3055 3054 3052 3051 3050 3048 3046 3043 3040 3037 3033 3030 3026 3022 3018 3012 3006 3002 2999 2995 2994 2994 2993 2993 2993 2993 2993 2992 2990 2989 2988 2986 2984 2982 2980 2979
3059 3057 3056 3053 3051 3050 3049 3048 3047 3045 3044 3043 3041 3040 3037 3034 3032 3029 3025 3022 3018 3015 3009 3004 2999 2996 2993 2990 2990 2990 2990 2991 2992 2992 2991 2991 2989 2988 2986 2984 2982 2980 2978
3053 3051 3049 3047 3046 3044 3042 3041 3040 3039 3037 3036 3034 3033 3031 3028 3026 3024 3021 3018 3014 3011 3006 3001 2996 2992 2990 2987 2987 2987 2988 2989 2990 2991 2990 2990 2989 2988 2986 2985 2983 2980 2978
3046 3045 3043 3040 3038 3037 3036 3034 3033 3032 3030 3029 3028 3026 3024 3023 3020 3018 3016 3013 3010 3007 3003 2999 2994 2990 2987 2985 2983 2984 2986 2987 2989 2989 2990 2990 2989 2987 2985 2983 2982 2980 2978
3037 3037 3035 3033 3031 3030 3028 3027 3026 3024 3023 3022 3021 3019 3018 3017 3015 3013 3010 3008 3006 3003 2999 2995 2992 2988 2984 2982 2981 2981 2983 2984 2986 2988 2988 2988 2987 2985 2983 2982 2981 2980 2979
3025 3026 3027 3026 3024 3021 3020 3019 3019 3017 3016 3015 3014 3012 3011 3010 3009 3008 3005 3003 3001 2999 2996 2992 2989 2986 2982 2980 2978 2979 2980 2981 2984 2985 2986 2985 2984 2981 2981 2981 2980 2979 2978
3013 3014 3014 3015 3015 3015 3013 3011 3010 3009 3009 3008 3007 3005 3005 3003 3002 3002 3000 2999 2996 2994 2992 2989 2986 2984 2981 2978 2976 2976 2977 2978 2980 2982 2983 2982 2980 2979 2980 2979 2979 2979 2978
3000 3001 3001 3002 3003 3003 3005 3005 3002 3001 3001 3001 3000 2999 2998 2996 2995 2995 2994 2993 2991 2990 2988 2986 2983 2981 2979 2976 2974 2974 2974 2976 2977 2978 2979 2978 2977 2977 2978 2979 2980 2978 2978
2986 2988 2988 2990 2991 2991 2992 2993 2995 2994 2993 2993 2993 2992 2990 2989 2989 2988 2988 2987 2986 2985 2983 2982 2979 2977 2976 2975 2972 2971 2972 2973 2974 2974 2973 2974 2973 2974 2975 2976 2976 2976 2975
2975 2977 2976 2978 2981 2982 2982 2983 2983 2984 2985 2984 2985 2984 2983 2982 2982 2981 2981 2981 2981 2980 2978 2977 2975 2973 2972 2972 2970 2969 2969 2969 2970 2970 2969 2969 2969 2970 2971 2972 2972 2972 2972
2964 2966 2966 2967 2969 2971 2974 2975 2975 2974 2974 2975 2975 2975 2975 2975 2975 2975 2974 2974 2974 2974 2973 2972 2971 2970 2968 2968 2967 2966 2965 2966 2966 2967 2967 2966 2965 2966 2967 2968 2969 2970 2969
2954 2954 2956 2957 2957 2959 2961 2964 2966 2967 2966 2966 2966 2965 2966 2967 2967 2967 2967 2967 2967 2968 2967 2967 2966 2966 2965 2963 2963 2963 2962 2962 2962 2963 2963 2963 2962 2962 2963 2964 2965 2965 2966
2943 2943 2944 2945 2946 2948 2949 2951 2953 2955 2957 2956 2956 2956 2956 2958 2959 2959 2959 2959 2960 2960 2961 2961 2961 2960 2960 2959 2959 2959 2959 2958 2958 2959 2959 2960 2960 2959 2959 2960 2961 2961 2961
2931 2931 2931 2932 2932 2933 2936 2938 2940 2943 2945 2947 2946 2947 2946 2947 2949 2951 2952 2952 2953 2953 2954 2955 2955 2955 2954 2954 2954 2954 2955 2954 2954 2955 2955 2956 2956 2957 2956 2956 2957 2957 2957
2920 2919 2918 2917 2918 2919 2920 2924 2927 2930 2932 2936 2936 2936 2937 2937 2939 2941 2943 2944 2945 2947 2947 2948 2948 2949 2949 2949 2949 2949 2949 2950 2950 2950 2951 2951 2952 2953 2953 2953 2953 2953 2953